Regional Weather Roundup
Issued by NWS

Home | Current Version | Previous Version | Graphics & Text | Print | Product List | Glossary On
Versions: 1 2 3 4 5 6 7 8 9 10 11 12 13 14 15 16 17 18 19 20 21 22 23 24 25 26 27 28 29 30 31 32 33 34 35 36 37 38 39 40 41 42 43 44 45 46 47 48 49 50
000
ASUS43 KTOP 271108
RWRKS

WEATHER ROUNDUP FOR KANSAS
NATIONAL WEATHER SERVICE GOODLAND KS
500 AM CST TUE JAN 27 2015

NOTE:  "FAIR" INDICATES FEW OR NO CLOUDS BELOW 12,000 FEET WITH NO
SIGNIFICANT WEATHER AND/OR OBSTRUCTIONS TO VISIBILITY.

KSZ001>006-013>018-027>032-041>047-271200-
NORTHWEST KANSAS

CITY           SKY/WX    TMP DP  RH WIND       PRES   REMARKS
GOODLAND       CLEAR     41  29  62 W12       30.10F
HAYS           CLEAR     34  21  60 CALM      30.09S
HILL CITY      CLEAR     32  26  78 W6        30.07F
RUSSELL        CLEAR     32  28  85 SW8       30.07S
$$

KSZ061>065-074>080-084>089-271200-
SOUTHWEST KANSAS

CITY           SKY/WX    TMP DP  RH WIND       PRES   REMARKS
DODGE CITY     CLEAR     42  29  59 W8        30.12S
ELKHART          N/A     43  29  58 W9          N/A
GARDEN CITY    CLEAR     33  29  85 W8        30.11F
GREAT BEND     CLEAR     32  25  74 SW3       30.10F
LIBERAL        CLEAR     37  28  70 W7        30.15F
PRATT          CLEAR     36  30  80 NW6       30.11S
$$

KSZ066>073-081>083-090>101-271200-
SOUTHEAST KANSAS

CITY           SKY/WX    TMP DP  RH WIND       PRES   REMARKS
CHANUTE        CLEAR     31  29  92 NW5       30.10R
COFFEYVILLE    CLEAR     35  31  85 NW5       30.10R
HUTCHINSON     CLEAR     37  29  72 NW3       30.10R
MEDICINE LODGE   N/A     33  29  85 N6        30.10S
NEWTON         CLEAR     45  28  53 E5        30.12R
PARSONS        CLEAR     30  28  92 CALM      30.10R
WICHITA INTL   CLEAR     37  29  72 CALM      30.10R
WICHITA JABRA  CLEAR     36  30  79 E3        30.10R
WICHITA MCCONL CLEAR     42  33  70 E6        30.11R
WINFIELD       CLEAR     34  29  82 CALM      30.11S
$$

KSZ007>012-019>026-033>040-048>060-102>105-271200-
NORTHEAST KANSAS

CITY           SKY/WX    TMP DP  RH WIND       PRES   REMARKS
CONCORDIA      CLEAR     34  30  85 SE3       30.08S
EMPORIA        CLEAR     39  29  67 W5        30.10R
LAWRENCE       CLEAR     24  21  88 NW6       30.10S
MANHATTAN      PTCLDY    26  24  92 CALM      30.10R
MARYSVILLE     CLEAR     30  27  86 CALM      30.09S
OLATHE IND     CLEAR     32  29  88 NW6       30.09S
OLATHE EXE     CLEAR     38  31  76 N5        30.08R
SALINA         CLEAR     34  28  79 S3        30.10S
TOPEKA BILLARD CLEAR     29  25  85 CALM      30.10S
TOPEKA FORBES  CLEAR     29  24  82 CALM      30.09R
$$


USA.gov is the U.S. government's official web portal to all federal, state and local government web resources and services.